Regional Weather Roundup
Issued by NWS Bismarck, ND

Home | Current Version | Previous Version | Text Only | Print | Product List | Glossary On
Versions: 1 2 3 4 5 6 7 8 9 10 11 12 13 14 15 16 17 18 19 20 21 22 23 24 25 26 27 28 29 30 31 32 33 34 35 36 37 38 39 40 41 42 43 44 45 46 47 48 49 50
000
ASUS43 KBIS 061401
RWRBIS

NWR BROADCAST TEXT
NATIONAL WEATHER SERVICE BISMARCK ND
800 AM CST FRI MAR 06 2015

NOTE: "FAIR" INDICATES FEW OR NO CLOUDS BELOW 12,000 FEET WITH NO
SIGNIFICANT WEATHER AND/OR OBSTRUCTIONS TO VISIBILITY.


CITY           SKY/WX    TMP DP  RH WIND       PRES   REMARKS
WILLISTON      MOCLDY    17  13  84 CALM      30.06F
MINOT          MOCLDY    17  10  74 SW12      30.05S WCI   4
MINOT AFB      MOCLDY    15  13  90 W5        30.04S WCI   8
BISMARCK       PTCLDY    17  13  84 W5        30.10R WCI  10
DICKINSON      CLOUDY    24  17  74 CALM      30.04S
GARRISON         N/A     14  10  84 CALM      30.07R
HETTINGER ARPT CLEAR     19  12  74 CALM      30.08S
JAMESTOWN      CLEAR     17  11  77 NW5       30.05R WCI  10
CARRINGTON     FAIR      16  14  93 MISG      30.06S
CROSBY         FAIR      19  18  93 S10       30.03F WCI   8
HAZEN          FAIR      16  12  86 SW3       30.10R
OAKES            N/A     16  10  79 NW6       30.07R WCI   7
WATFORD CITY   PTSUNNY   14  10  85 SW3       30.05S
$$

CITY           SKY/WX    TMP DP  RH WIND       PRES   REMARKS
GRAND FORKS    CLEAR     13   7  77 W8        30.04R WCI   2
GRAND FORKS AF CLEAR     15   8  73 NW8       30.03S WCI   4
DEVILS LAKE    PTCLDY    10   3  72 W9        30.04R WCI  -2
FARGO          CLEAR     15   8  73 NW12      30.06R WCI   2
GWINNER        SUNNY     19  12  73 NW10      30.08R WCI   8
$$

CITY           SKY/WX    TMP DP  RH WIND       PRES   REMARKS
ABERDEEN       CLEAR      9   4  80 CALM      30.09R
MOBRIDGE       CLEAR     22  14  71 NW5       30.07R WCI  16
BUFFALO          N/A     29  17  61 W6        30.01S
RAPID CITY     CLEAR     28  18  66 NW6       30.12S
GLASGOW        CLOUDY    28  21  75 CALM      30.03F
SIDNEY         MOCLDY    23  19  86 CALM      30.09F
WOLF POINT     CLOUDY    26  20  77 W3        30.05F
GLENDIVE       CLOUDY    27  19  74 S6        30.07F WCI  20
MILES CITY     MOCLDY    32  19  58 MISG      30.09S
BAKER          CLOUDY    28  18  66 W6        30.07F
$$

CITY           SKY/WX    TMP DP  RH WIND       PRES   REMARKS
BILLINGS       PTCLDY    33  15  47 SW16      30.16R
GREAT FALLS    MOCLDY    35  18  49 SW15      30.13F
$$



USA.gov is the U.S. government's official web portal to all federal, state and local government web resources and services.